Location: Bílinka
(49.3579°N, 14.3767°E)
Time: 00:48:59
(UTC+00:00)

FENGYUN 1C DEB - Pass Details

Date: 01 March 2024
Orbit: 849 x 891 km, 98.8° (Epoch: 24 April)

Event Time Altitude Azimuth Distance (km) Brightness Sun altitude
Rises 19:53:34 0° 227° (SW) 3,417 ? -30.5°
Reaches altitude 10° 19:58:31 10° 267° (W) 2,499 ? -31.2°
Maximum altitude 19:59:29 10° 277° (W) 2,472 ? -31.4°
Drops below altitude 10° 20:00:28 10° 287° (WNW) 2,507 ? -31.5°
Sets 20:05:31 0° 327° (NNW) 3,465 ? -32.2°
